DELTA 1 DEB, 21475

Orbit data source: Space-Track

DELTA 1 DEB, 21475 is space debris in SSO originally from a launch on Thu, 12 Jun 1975 UTC launched from the Air Force Western Test Range (AFWTR). Debris objects in space refer to the collection of defunct objects orbiting the Earth. Examples of debris include non-operational satellites, rocket bodies, and fragments generated from explosions, collisions, or faulty payload assembly.

Loading next visibility...
Identifier
21475, 1975-052FK
Orbit
SSO
Country
Flag of USUS
Related business
Manufacturer
Unknown
Mission
Spacecraft
Bus & Motor
Unknown
Mass
Unknown
Launch date (UTC)
1975-06-12 (50 years ago)
Launch vehicle
Unknown
Launch site
Air Force Western Test Range (AFWTR)
Object type
Payload
Rocket body
Debris
Shape & HBR
Unknown shape, 0.1 m
Radar Cross Section
Small (<0.1 m²)

Expand to show TLE details & history
Last TLE update: 3 days ago

TLE from 3 days ago
0 DELTA 1 DEB
1 21475U 75052FK  25303.95375080  .00000083  00000-0  18031-3 0  9995
2 21475  99.5876 114.1485 0092136  85.0138  66.9482 13.54108393700475
Epoch: 2025-10-30T22:53Z
TLE epoch observation values (Epoch: 2025-10-30T22:53:24.069Z)
Latitude
26.69088°
Longitude
-83.86064°
Altitude
1,034.038 km
Speed
7.35 km/s
True Right ascension
19h 55m 58s
True Declination
26° 33' 30"
Sunlit
Object was in daylight at epoch
Visualization orbit readout
Latitude
Unknown
Longitude
Unknown
Altitude
Unknown
Speed
Unknown
Apparent Right ascension
Unknown
Apparent Declination
Unknown
Sunlit
N/A
Visualization observer readout
Local Sidereal Time
02:44:02
Azimuth
Unknown
Elevation
Unknown
Doppler factor
Unknown
Orbital elements
Apogee altitude
1,122.952 km
Perigee altitude
985.99 km
Semi-major axis
7,432.608 km
Eccentricity
0.00921
Inclination
99.5876°
RAAN
114.1485°
Arg. of periapsis
85.0138°
True anomaly
67.92405°
Mean anomaly
66.9482°
Eccentric anomaly
67.43569°
Mean motion
3.38713 °/min
Orbital period
106.28 mins
BSTAR
0.00018031
Loading maneuver chart data...
Computing Atmospheric mass density...
Loading historical data...
Loading historical data...
Loading historical data...
Loading historical data...
Loading historical data...
Loading historical data...
Loading historical data...

Documentation

Showing up to 5 results
|